Regional Weather Roundup
Issued by NWS

Home | Current Version | Previous Version | Text Only | Print | Product List | Glossary Off
Versions: 1 2 3 4 5 6 7 8 9 10 11 12 13 14 15 16 17 18 19 20 21 22 23 24 25 26 27 28 29 30 31 32 33 34 35 36 37 38 39 40 41 42 43 44 45 46 47 48 49 50

321
ASUS43 KBIS 090302
RWRND

NORTH DAKOTA REGIONAL WEATHER ROUNDUP
NATIONAL WEATHER SERVICE BISMARCK ND
900 PM CST MON FEB 08 2016

NOTE: "FAIR" INDICATES FEW OR NO CLOUDS BELOW 12,000 FEET WITH NO
SIGNIFICANT WEATHER AND/OR OBSTRUCTIONS TO VISIBILITY.


NDZ001>003-009>011-017-090400-
NORTHWEST NORTH DAKOTA

CITY           SKY/WX    TMP DP  RH WIND       PRES   REMARKS
WILLISTON      CLOUDY    30  21  69 CALM      30.27F
MINOT          CLEAR     21  14  74 W10       30.27R WCI  10
MINOT AFB      CLOUDY    17  15  91 CALM      30.27R
$$

NDZ018>021-031>035-040>046-090400-
SOUTHWEST NORTH DAKOTA

CITY           SKY/WX    TMP DP  RH WIND       PRES   REMARKS
BISMARCK       MOCLDY    28  15  58 N10       30.26S WCI  19
DICKINSON      CLOUDY    29  16  58 N5        30.21F
GARRISON         N/A     17  14  88 N10       30.26R WCI   5
HETTINGER ARPT CLOUDY    31  13  47 N8        30.24F
$$

NDZ004>008-012>016-024-026-027-054-090400-
NORTHEAST NORTH DAKOTA

CITY           SKY/WX    TMP DP  RH WIND       PRES   REMARKS
GRAND FORKS    PTCLDY     9   2  73 NW18      30.26R WCI -10
GRND FRKS AFB  CLOUDY     9   1  71 N18       30.26S WCI -10
DEVILS LAKE    CLEAR      8   5  87 N8        30.25S WCI  -4
$$

NDZ022-023-025-028>030-036>039-047>053-090400-
SOUTHEAST NORTH DAKOTA

CITY           SKY/WX    TMP DP  RH WIND       PRES   REMARKS
FARGO          CLEAR      9   1  70 NW24G32   30.23R WCI -12
JAMESTOWN      CLEAR     13   9  84 N10       30.21S WCI   0
$$





USA.gov is the U.S. government's official web portal to all federal, state and local government web resources and services.